EHI
15 15 17 18 16 14 13 10 9 8 7 5 5 6 6 5 6 7 10 15 19 20 16 11 7 6 5 4 4 5 6 5 4 3 4 5 4 4 3 3 3 3 3
18 17 17 17 16 15 15 14 11 10 9 7 6 6 5 5 6 8 10 13 16 17 14 10 7 5 4 3 4 4 4 5 5 4 4 5 5 4 3 3 3 3 3
22 20 18 16 14 14 16 18 16 14 12 12 10 8 7 7 8 10 11 12 13 11 10 9 7 5 4 3 3 2 3 5 6 6 6 6 5 4 3 3 3 3 3
22 21 19 16 13 14 16 17 17 15 13 13 12 11 10 10 11 12 13 14 14 11 10 9 8 7 5 4 3 3 3 5 6 7 7 7 5 4 3 3 3 2 1
19 19 18 15 13 13 14 14 14 13 11 9 9 10 10 10 12 13 14 16 18 16 12 9 8 7 6 5 5 4 4 5 6 7 8 7 5 4 3 3 2 1 0
19 19 17 14 13 13 13 13 12 12 9 7 7 7 8 10 13 14 15 16 18 18 14 9 7 6 5 6 6 6 5 6 7 8 7 6 5 4 3 1 1 0 0
23 21 18 15 14 14 14 13 12 12 10 9 8 6 7 9 13 14 14 14 16 15 13 10 8 7 6 5 6 6 6 7 9 9 8 6 4 3 2 1 0 0 0
23 20 18 18 16 15 15 15 14 13 12 11 10 8 7 9 12 12 10 12 13 12 11 10 10 9 7 6 5 6 6 8 11 12 11 9 6 3 2 0 0 0 0
21 19 17 19 19 17 16 17 16 15 14 13 12 10 9 10 11 10 8 9 11 11 9 8 10 11 9 8 7 6 5 6 9 12 12 10 7 4 2 1 0 0 0
21 19 18 19 20 18 18 18 17 16 15 14 12 11 10 10 10 9 7 8 9 10 8 7 9 12 11 10 10 8 5 4 6 9 10 8 6 4 3 2 1 0 0
22 21 20 21 21 19 18 18 17 16 15 15 13 12 11 10 9 8 7 7 7 8 8 8 9 12 14 12 10 9 5 4 4 6 7 6 5 4 4 3 2 1 0
23 23 22 23 23 20 18 18 18 17 16 16 15 14 13 12 10 7 6 6 6 7 9 9 9 11 14 13 10 8 5 3 3 4 4 4 4 4 4 4 3 1 0
27 26 25 25 24 21 19 19 19 19 19 18 16 16 15 13 11 8 7 6 6 7 9 11 10 10 12 13 11 7 4 2 1 2 2 2 3 3 4 3 3 2 1
31 30 29 26 24 22 20 20 20 21 21 19 17 16 15 13 11 9 7 6 6 7 9 10 10 10 12 14 11 6 4 2 0 1 1 1 1 2 3 3 3 3 2
30 31 30 27 24 22 21 21 21 22 22 20 17 15 14 12 11 10 9 6 5 5 6 7 9 11 13 13 9 6 6 3 1 0 0 0 0 1 2 3 3 2 1
27 27 28 27 25 23 23 23 23 21 20 18 16 15 14 12 11 11 9 6 5 5 5 6 8 10 11 9 7 8 8 5 1 0 0 0 0 0 1 2 1 1 0
27 25 25 24 24 24 24 23 21 19 17 15 15 15 15 13 11 10 9 7 7 7 6 7 7 8 9 8 7 9 10 7 3 1 0 0 0 0 0 0 0 0 0
27 26 23 21 20 22 23 21 18 16 15 14 14 15 14 13 11 10 9 9 9 9 9 9 8 7 8 9 9 9 10 8 5 2 0 0 0 0 0 0 0 0 0
25 24 21 18 17 18 18 18 16 14 13 13 13 13 12 10 10 11 10 9 10 10 10 10 9 8 7 8 9 8 8 8 6 2 1 0 0 0 0 0 0 0 0
22 21 19 16 14 13 13 14 13 12 11 11 11 10 9 8 8 8 8 8 8 8 9 9 8 7 7 7 7 7 8 8 6 4 1 0 0 0 0 0 0 0 0
19 19 17 14 12 10 9 10 9 9 9 9 9 8 7 7 6 6 5 5 5 5 6 7 7 7 6 6 6 6 6 6 6 5 3 1 0 0 0 0 0 0 0
16 16 14 12 10 8 7 6 6 7 8 8 8 7 7 6 5 4 3 3 3 3 4 5 6 6 6 6 6 6 6 5 5 5 3 1 0 0 0 0 0 0 0
14 14 13 11 10 8 5 3 4 6 7 7 7 7 6 6 4 3 3 3 3 3 3 3 5 6 6 6 6 6 5 4 4 4 3 2 1 1 1 0 0 0 0
14 14 13 11 10 9 6 2 2 4 6 8 8 7 7 6 4 3 3 3 3 2 1 2 3 4 4 4 5 5 5 4 3 3 3 3 2 1 1 0 0 0 0
14 13 12 10 10 9 6 2 1 3 6 7 7 7 7 5 4 3 3 3 1 1 0 0 1 1 2 2 2 3 4 3 3 3 3 3 2 1 0 1 1 1 0
11 10 9 9 10 9 6 2 1 3 6 6 6 6 5 4 4 3 3 2 1 0 0 0 0 0 1 1 1 1 3 3 3 3 3 3 2 1 1 2 2 2 1
Wind_Speed
1 1 1 2 2 2 2 2 2 2 2 2 2 2 3 3 5 4 4 9 8 8 9 10 9 9 9 8 8 8 8 8 7 7 7 7 6 6 6 6 5 5 5
1 1 1 1 1 1 1 2 3 2 2 2 2 1 2 3 3 5 5 6 8 8 8 9 9 9 9 9 8 8 8 8 7 7 7 7 6 6 6 6 6 6 5
2 1 1 1 1 1 2 1 2 2 3 3 3 2 2 2 3 4 5 4 5 7 8 8 9 9 9 9 8 9 9 8 8 8 8 8 7 7 6 6 6 6 5
1 1 1 1 1 1 1 2 1 2 2 2 2 2 2 2 3 4 4 4 4 4 6 9 9 9 9 9 9 9 9 9 9 8 8 8 8 7 7 6 5 5 5
1 1 1 1 1 1 1 2 2 1 2 2 2 2 2 2 3 4 4 4 4 4 4 7 10 10 10 10 10 10 10 10 9 9 9 9 9 8 7 7 7 6 6
2 1 1 1 2 1 1 1 1 2 1 1 2 2 2 3 3 3 4 4 4 5 5 6 6 7 10 10 10 11 11 10 10 10 10 10 10 9 8 8 7 7 7
2 1 1 2 1 1 1 1 1 2 2 1 1 1 2 3 3 3 3 3 4 4 5 5 4 4 5 9 11 11 11 11 10 10 10 10 9 9 9 8 8 7 7
2 2 2 2 2 2 2 2 2 1 2 2 2 1 1 2 2 4 3 3 3 4 5 6 5 5 5 4 7 11 11 11 11 11 10 9 9 10 10 9 9 8 7
2 2 2 2 2 2 2 2 2 3 2 2 2 2 1 1 1 1 2 2 3 3 4 4 6 5 5 4 5 9 11 11 12 12 11 10 10 9 10 10 10 9 9
2 2 1 2 1 1 2 2 2 2 2 2 2 1 1 1 1 1 1 1 2 3 3 3 5 5 6 4 5 9 11 11 11 12 11 11 11 11 10 10 10 10 10
2 2 2 1 1 1 2 2 2 2 2 2 2 1 1 1 1 2 2 2 2 2 2 2 2 3 5 4 4 7 11 10 10 10 11 11 11 11 11 11 10 11 11
2 2 2 1 1 2 2 2 2 3 2 2 2 1 1 1 2 2 2 3 2 2 3 3 2 3 3 4 6 8 11 11 10 10 10 10 10 11 11 11 11 11 11
2 2 1 1 1 2 2 2 2 2 3 3 2 2 2 2 1 1 2 2 1 1 2 2 3 3 4 3 4 7 9 11 11 11 11 10 10 11 10 10 11 11 10
1 2 2 1 1 2 2 2 2 2 2 3 3 2 2 2 1 2 2 2 1 1 2 2 2 3 3 3 5 8 5 9 10 10 11 11 11 11 11 10 10 10 10
1 2 2 2 2 2 2 2 2 2 1 2 2 2 2 2 2 2 1 2 2 2 2 2 2 2 2 2 5 4 4 7 9 10 11 11 11 11 11 11 11 11 11
1 1 2 2 2 2 2 2 2 2 2 2 2 2 2 2 2 1 1 2 2 2 2 2 1 2 3 3 5 4 4 7 9 10 11 11 11 11 11 12 11 11 10
1 2 2 2 2 2 2 2 2 2 3 3 2 2 2 2 2 2 2 2 2 2 3 2 1 1 3 2 3 3 3 4 5 9 10 10 11 11 11 11 11 11 11
1 2 2 2 2 2 2 2 2 2 2 2 2 2 2 2 2 2 2 2 2 2 2 3 2 2 3 3 3 4 4 5 4 8 10 10 11 11 11 11 11 11 11
2 2 2 2 2 2 2 2 2 2 2 2 2 2 2 2 2 2 2 2 2 2 1 2 3 2 2 3 3 4 4 3 5 5 9 10 11 11 11 11 11 11 11
3 2 2 2 1 1 1 1 2 2 2 2 2 2 2 2 2 2 2 2 2 2 2 2 2 2 2 2 2 2 3 3 3 4 4 6 8 11 11 11 11 12 12
3 2 2 2 2 2 1 1 1 2 2 2 2 2 2 2 2 2 2 1 2 2 2 2 3 2 2 2 2 2 3 3 3 3 2 3 4 5 6 9 11 12 12
1 2 2 2 2 1 2 2 0 1 1 2 2 2 3 3 3 4 3 3 3 3 3 3 2 2 3 2 2 2 2 2 3 2 2 4 3 4 5 5 10 12 13
1 1 1 1 1 2 2 2 1 2 2 2 2 2 3 2 2 2 3 4 3 4 5 3 3 3 2 2 2 2 3 3 4 3 2 4 3 4 4 5 10 12 12
1 1 1 2 2 2 2 2 0 2 3 3 3 2 2 1 1 0 2 2 2 2 3 3 3 3 3 2 2 3 4 4 4 3 2 3 3 3 3 3 9 11 12
1 1 2 2 2 2 3 3 1 2 2 3 3 2 2 2 2 1 1 2 1 2 2 1 2 3 4 4 3 2 3 3 4 3 2 2 3 3 2 3 5 10 10
1 2 2 2 2 3 4 4 3 2 2 2 2 2 2 2 3 2 1 2 3 2 2 3 3 4 5 6 7 5 4 3 3 3 2 1 2 2 2 2 2 3 5
Wind_Direction
163 152 162 172 200 200 180 174 182 175 172 169 171 169 152 138 141 143 140 150 150 157 169 175 177 180 179 177 178 179 180 180 178 176 179 180 181 184 182 182 178 176 174
145 172 181 180 219 195 164 181 182 168 165 149 162 156 144 146 147 142 142 152 155 164 176 182 186 188 187 186 185 181 182 181 181 180 181 180 183 185 185 186 188 189 187
161 192 190 174 216 202 185 191 177 167 176 176 176 185 170 157 158 151 150 154 161 171 178 183 190 192 190 191 187 184 185 185 188 188 186 186 187 187 189 191 193 193 197
167 206 201 203 209 205 202 185 178 186 179 182 184 187 171 163 168 164 162 163 168 175 181 183 186 188 189 192 191 190 191 194 194 193 192 192 190 190 193 193 194 194 197
184 211 202 244 215 208 219 196 153 181 184 189 193 179 185 184 177 179 172 171 174 171 172 178 184 187 192 196 196 195 195 197 197 197 197 196 193 192 195 200 202 202 198
192 215 198 243 241 198 195 187 162 176 199 216 219 184 188 199 184 180 178 176 172 174 173 172 177 190 196 197 198 200 198 198 198 198 198 199 197 196 200 202 202 202 200
198 209 223 208 239 210 201 188 183 192 196 188 196 216 209 208 193 179 183 178 180 176 173 170 177 178 185 197 201 201 201 199 197 198 201 200 198 199 200 198 196 196 202
202 199 224 216 200 212 199 204 191 206 206 187 189 195 211 219 210 196 182 188 189 175 177 183 182 176 174 176 191 199 202 198 199 200 201 203 203 203 201 200 202 203 205
198 214 211 236 217 211 204 208 208 203 220 226 203 194 195 201 181 189 199 193 191 190 189 181 182 183 181 176 181 196 198 199 204 207 206 204 204 205 207 208 210 212 213
195 198 203 230 235 226 208 217 195 224 218 231 236 233 220 118 165 168 215 199 206 202 199 194 186 181 182 178 176 182 192 198 206 211 209 208 207 209 211 215 218 220 222
184 185 182 203 225 232 216 228 201 213 223 229 234 234 234 216 217 187 199 203 211 203 201 212 199 180 179 178 179 179 185 195 204 209 211 213 212 212 215 219 224 228 230
177 182 186 188 213 228 221 223 218 212 224 237 242 238 218 212 210 203 208 205 205 203 201 212 204 182 177 177 194 186 185 193 200 205 208 211 213 217 220 222 225 229 233
173 175 185 195 215 223 221 212 224 223 228 231 233 240 240 243 232 227 199 223 228 212 195 209 202 189 188 175 183 180 188 193 200 206 208 212 215 219 222 224 226 229 234
182 172 182 189 213 223 229 210 220 220 221 226 234 239 254 257 241 230 210 204 236 243 216 212 195 194 189 171 171 175 189 198 205 208 210 214 217 220 223 225 228 231 232
190 149 183 195 209 220 225 219 211 216 217 220 233 235 242 263 260 252 239 218 213 236 243 221 195 191 174 166 172 187 189 202 211 212 215 217 219 221 223 225 228 231 231
162 171 185 199 208 209 215 213 212 207 208 218 221 226 234 260 281 264 245 246 228 224 248 234 221 181 179 189 185 193 199 203 214 216 217 219 220 222 225 227 229 230 229
184 194 202 203 206 208 208 216 223 210 213 210 218 217 224 231 260 278 273 257 245 227 238 254 235 203 187 196 179 196 196 199 211 218 219 220 221 223 225 227 227 227 225
198 200 205 210 218 215 209 221 230 231 222 211 213 216 236 233 233 260 265 257 253 240 227 243 244 235 211 193 191 211 216 221 213 214 215 218 218 221 223 223 223 224 225
208 215 210 217 219 222 219 220 214 228 230 228 225 220 228 232 230 243 267 270 255 255 230 239 244 235 226 203 193 228 236 235 232 216 212 216 218 220 222 223 223 222 224
218 215 217 216 212 212 218 233 234 226 223 233 234 225 234 233 231 233 243 257 273 280 258 249 251 243 233 215 200 226 252 244 250 241 219 218 223 225 225 225 225 224 225
228 216 220 207 201 205 207 209 249 234 226 225 231 226 230 216 199 217 243 244 262 266 262 254 247 249 242 223 223 229 246 249 251 242 219 229 220 222 222 227 227 227 227
251 234 227 213 213 211 103 93 350 256 245 235 236 239 232 210 196 203 218 223 233 244 261 261 261 252 246 247 240 249 257 262 265 238 228 248 224 225 220 212 215 217 221
252 247 240 215 170 135 129 104 46 289 258 244 241 236 250 234 195 216 216 215 229 244 238 244 255 268 270 257 258 267 270 268 260 259 251 261 244 238 233 227 211 214 215
261 264 245 222 186 164 146 140 320 267 265 251 239 232 227 217 192 228 248 232 244 262 247 232 241 264 277 287 253 249 256 261 264 256 228 257 254 250 250 213 209 212 214
254 264 260 237 192 159 169 165 178 263 266 262 240 232 219 159 142 165 261 251 257 272 290 297 264 259 262 260 248 252 259 265 273 265 228 246 262 264 252 231 216 210 211
243 253 255 254 188 167 166 163 181 241 260 269 253 210 179 168 162 161 236 260 254 262 281 289 275 263 254 247 235 223 232 246 264 268 244 253 275 287 276 253 213 197 215